Location: *
(38.3914°N, 75.0697°W)
Time: 08:21:23
(UTC+00:00)

LO-87 - Visible Passes

Search period start: 11 May 2021 00:00
Search period end: 21 May 2021 00:00
Orbit: 469 x 487 km, 97.4° (Epoch: 10 May)

Date Brightness Start Highest point End Pass type
(mag) Time Alt. Az. Time Alt. Az. Time Alt. Az.
11 May ? 03:52:17 13° NNE 03:52:17 13° NNE 03:52:43 10° N visible
13 May ? 04:32:59 13° NNW 04:32:59 13° NNW 04:33:26 10° NNW visible
14 May ? 04:06:14 15° N 04:06:14 15° N 04:06:56 10° N visible
15 May ? 03:39:28 13° NNE 03:39:28 13° NNE 03:39:59 10° NNE visible
16 May ? 04:46:56 12° NNW 04:46:56 12° NNW 04:47:17 10° NNW visible
17 May ? 04:20:10 16° N 04:20:10 16° N 04:21:00 10° N visible
18 May ? 03:53:24 16° NNE 03:53:24 16° NNE 03:54:19 10° N visible
19 May ? 03:26:38 11° NE 03:26:38 11° NE 03:27:01 10° NNE visible
19 May ? 05:00:51 11° NW 05:00:51 11° NW 05:00:59 10° NW visible
20 May ? 04:34:05 16° NNW 04:34:05 16° NNW 04:34:56 10° NNW visible
